| time (UTC) | temp C | wind direction | speed KPH | gust KPH | rain 1hr cm | rain 24hr cm | rain mn cm | humidity % | barometer mb |
| 20260503030423 | 22 | 286 | 1.6 | 1.6 | 0.00 | 0.00 | 0.00 | 25 | 1010.8 |
| 20260503025443 | 22 | 0 | 0.0 | 0.0 | 0.00 | 0.00 | 0.00 | 24 | 1010.8 |
| 20260503024423 | 23 | 0 | 0.0 | 0.0 | 0.00 | 0.00 | 0.00 | 24 | 1010.7 |
| 20260503023423 | 23 | 285 | 1.6 | 3.2 | 0.00 | 0.00 | 0.00 | 23 | 1010.6 |
| 20260503022444 | 23 | 284 | 0.0 | 1.6 | 0.00 | 0.00 | 0.00 | 23 | 1010.7 |
| 20260503021423 | 24 | 0.0 | 0.0 | 0.00 | 0.00 | 0.00 | 21 | 1010.6 | |
| 20260503020424 | 25 | 270 | 1.6 | 1.6 | 0.00 | 0.00 | 0.00 | 18 | 1010.6 |
| 20260503015444 | 25 | 270 | 1.6 | 3.2 | 0.00 | 0.00 | 0.00 | 16 | 1010.6 |
| 20260503014424 | 25 | 281 | 1.6 | 1.6 | 0.00 | 0.00 | 0.00 | 15 | 1010.6 |
| 20260503013424 | 26 | 288 | 1.6 | 1.6 | 0.00 | 0.00 | 0.00 | 15 | 1010.6 |
| 20260503012425 | 26 | 279 | 1.6 | 1.6 | 0.00 | 0.00 | 0.00 | 12 | 1010.7 |
| 20260503011425 | 26 | 0.0 | 0.0 | 0.00 | 0.00 | 0.00 | 10 | 1010.8 | |
| 20260503010425 | 26 | 287 | 0.0 | 1.6 | 0.00 | 0.00 | 0.00 | 9 | 1010.8 |
| 20260503005425 | 27 | 0.0 | 0.0 | 0.00 | 0.00 | 0.00 | 9 | 1010.8 | |
| 20260503004425 | 27 | 282 | 0.0 | 1.6 | 0.00 | 0.00 | 0.00 | 7 | 1010.8 |
| 20260503003426 | 27 | 267 | 1.6 | 3.2 | 0.00 | 0.00 | 0.00 | 5 | 1010.8 |
| 20260503002425 | 27 | 272 | 1.6 | 1.6 | 0.00 | 0.00 | 0.00 | 5 | 1010.8 |
| 20260503001425 | 28 | 312 | 0.0 | 1.6 | 0.00 | 0.00 | 0.00 | 7 | 1010.9 |
| 20260503000426 | 27 | 0 | 0.0 | 0.0 | 0.00 | 0.00 | 0.00 | 7 | 1011.0 |
| 20260502235426 | 27 | 253 | 0.0 | 1.6 | 0.00 | 0.00 | 0.00 | 5 | 1011.0 |
| 20260502234426 | 27 | 272 | 3.2 | 3.2 | 0.00 | 0.00 | 0.00 | 4 | 1011.0 |
| 20260502233426 | 28 | 262 | 0.0 | 1.6 | 0.00 | 0.00 | 0.00 | 7 | 1011.1 |
| 20260502232427 | 28 | 267 | 0.0 | 1.6 | 0.00 | 0.00 | 0.00 | 7 | 1011.1 |
| 20260502231427 | 28 | 0.0 | 0.0 | 0.00 | 0.00 | 0.00 | 5 | 1011.1 | |
| 20260502230447 | 28 | 0.0 | 0.0 | 0.00 | 0.00 | 0.00 | 7 | 1011.2 | |
| 20260502225428 | 28 | 185 | 0.0 | 1.6 | 0.00 | 0.00 | 0.00 | 5 | 1011.4 |
| 20260502224427 | 28 | 122 | 1.6 | 3.2 | 0.00 | 0.00 | 0.00 | 9 | 1011.5 |
| 20260502223428 | 27 | 0.0 | 0.0 | 0.00 | 0.00 | 0.00 | 5 | 1011.7 | |
| 20260502222427 | 28 | 263 | 0.0 | 0.0 | 0.00 | 0.00 | 0.00 | 7 | 1011.8 |
| 20260502221448 | 28 | 302 | 1.6 | 1.6 | 0.00 | 0.00 | 0.00 | 7 | 1011.9 |
| 20260502220428 | 28 | 126 | 1.6 | 3.2 | 0.00 | 0.00 | 0.00 | 7 | 1012.0 |
| 20260502215428 | 28 | 287 | 0.0 | 1.6 | 0.00 | 0.00 | 0.00 | 9 | 1012.1 |
| 20260502214429 | 28 | 181 | 3.2 | 4.8 | 0.00 | 0.00 | 0.00 | 10 | 1012.3 |
| 20260502213428 | 28 | 125 | 1.6 | 3.2 | 0.00 | 0.00 | 0.00 | 9 | 1012.4 |
| 20260502212429 | 28 | 107 | 3.2 | 4.8 | 0.00 | 0.00 | 0.00 | 10 | 1012.6 |
| 20260502211509 | 28 | 148 | 1.6 | 4.8 | 0.00 | 0.00 | 0.00 | 10 | 1012.7 |
| 20260502210429 | 28 | 253 | 1.6 | 3.2 | 0.00 | 0.00 | 0.00 | 12 | 1012.8 |
| 20260502205429 | 27 | 98 | 4.8 | 8.0 | 0.00 | 0.00 | 0.00 | 15 | 1012.8 |
| 20260502204429 | 27 | 78 | 1.6 | 4.8 | 0.00 | 0.00 | 0.00 | 15 | 1013.0 |
| 20260502203430 | 27 | 217 | 1.6 | 4.8 | 0.00 | 0.00 | 0.00 | 15 | 1013.1 |
| 20260502202430 | 27 | 205 | 1.6 | 3.2 | 0.00 | 0.00 | 0.00 | 13 | 1013.2 |
| 20260502201430 | 26 | 142 | 1.6 | 3.2 | 0.00 | 0.00 | 0.00 | 16 | 1013.4 |
| 20260502200430 | 26 | 38 | 3.2 | 6.4 | 0.00 | 0.00 | 0.00 | 18 | 1013.5 |
| 20260502195450 | 25 | 100 | 1.6 | 4.8 | 0.00 | 0.00 | 0.00 | 21 | 1013.5 |
| 20260502194415 | 25 | 98 | 3.2 | 6.4 | 0.00 | 0.00 | 0.00 | 19 | 1013.7 |
| 20260502193436 | 24 | 92 | 1.6 | 3.2 | 0.00 | 0.00 | 0.00 | 21 | 1013.8 |
| 20260502192416 | 24 | 47 | 1.6 | 3.2 | 0.00 | 0.00 | 0.00 | 28 | 1014.1 |
| 20260502191431 | 23 | 0 | 0.0 | 0.0 | 0.00 | 0.00 | 0.00 | 28 | 1014.1 |
| 20260502190416 | 23 | 194 | 1.6 | 3.2 | 0.00 | 0.00 | 0.00 | 30 | 1014.3 |
| 20260502185417 | 23 | 153 | 3.2 | 4.8 | 0.00 | 0.00 | 0.00 | 31 | 1014.6 |
| 20260502184416 | 22 | 154 | 3.2 | 3.2 | 0.00 | 0.00 | 0.00 | 33 | 1014.7 |
| 20260502183457 | 21 | 126 | 0.0 | 1.6 | 0.00 | 0.00 | 0.00 | 35 | 1014.8 |
| 20260502182417 | 21 | 164 | 1.6 | 1.6 | 0.00 | 0.00 | 0.00 | 36 | 1015.0 |
| 20260502181432 | 20 | 111 | 1.6 | 1.6 | 0.00 | 0.00 | 0.00 | 37 | 1015.2 |
| 20260502180433 | 20 | 146 | 3.2 | 6.4 | 0.00 | 0.00 | 0.00 | 42 | 1015.3 |
| 20260502170418 | 16 | 296 | 0.0 | 1.6 | 0.00 | 0.00 | 0.00 | 45 | 1015.8 |
| 20260502163419 | 15 | 251 | 1.6 | 1.6 | 0.00 | 0.00 | 0.00 | 48 | 1016.2 |
| 20260502162419 | 14 | 35 | 0.0 | 0.0 | 0.00 | 0.00 | 0.00 | 49 | 1016.3 |
| 20260502161419 | 13 | 169 | 3.2 | 3.2 | 0.00 | 0.00 | 0.00 | 51 | 1016.2 |
| 20260502160419 | 13 | 154 | 1.6 | 3.2 | 0.00 | 0.00 | 0.00 | 51 | 1016.2 |
| 20260502151440 | 11 | 141 | 0.0 | 1.6 | 0.00 | 0.00 | 0.00 | 60 | 1016.2 |
| 20260502150420 | 11 | 141 | 3.2 | 3.2 | 0.00 | 0.00 | 0.00 | 64 | 1016.1 |
| 20260502130418 | 9 | 1 | 3.2 | 4.8 | 0.00 | 0.00 | 0.00 | 60 | 1015.6 |
| 20260502123419 | 10 | 98 | 3.2 | 4.8 | 0.00 | 0.00 | 0.00 | 59 | 1015.4 |
| 20260502122419 | 10 | 36 | 1.6 | 4.8 | 0.00 | 0.00 | 0.00 | 59 | 1015.4 |
| 20260502121439 | 10 | 34 | 3.2 | 3.2 | 0.00 | 0.00 | 0.00 | 58 | 1015.4 |
| 20260502120439 | 10 | 84 | 1.6 | 3.2 | 0.00 | 0.00 | 0.00 | 58 | 1015.2 |
| 20260502115420 | 10 | 79 | 1.6 | 4.8 | 0.00 | 0.00 | 0.00 | 58 | 1015.1 |
| 20260502114419 | 10 | 124 | 3.2 | 4.8 | 0.00 | 0.00 | 0.00 | 58 | 1015.3 |
| 20260502113420 | 10 | 110 | 4.8 | 4.8 | 0.00 | 0.00 | 0.00 | 58 | 1015.4 |
| 20260502112420 | 10 | 53 | 4.8 | 6.4 | 0.00 | 0.00 | 0.00 | 58 | 1015.6 |
| 20260502111420 | 10 | 169 | 1.6 | 3.2 | 0.00 | 0.00 | 0.00 | 59 | 1015.6 |
| 20260502110421 | 10 | 48 | 3.2 | 3.2 | 0.00 | 0.00 | 0.00 | 58 | 1015.6 |
| 20260502105420 | 10 | 188 | 3.2 | 4.8 | 0.00 | 0.00 | 0.00 | 55 | 1015.7 |
| 20260502104421 | 10 | 43 | 3.2 | 3.2 | 0.00 | 0.00 | 0.00 | 58 | 1015.6 |
| 20260502103421 | 10 | 60 | 3.2 | 4.8 | 0.00 | 0.00 | 0.00 | 58 | 1015.6 |
| 20260502102441 | 10 | 197 | 3.2 | 3.2 | 0.00 | 0.00 | 0.00 | 58 | 1015.6 |
| 20260502101421 | 10 | 49 | 1.6 | 3.2 | 0.00 | 0.00 | 0.00 | 55 | 1015.6 |
| 20260502100422 | 10 | 78 | 3.2 | 4.8 | 0.00 | 0.00 | 0.00 | 54 | 1015.4 |
| 20260502091422 | 11 | 51 | 1.6 | 4.8 | 0.00 | 0.00 | 0.00 | 53 | 1015.3 |
| 20260502090423 | 11 | 111 | 3.2 | 4.8 | 0.00 | 0.00 | 0.00 | 54 | 1015.4 |
| 20260502071425 | 10 | 245 | 3.2 | 4.8 | 0.00 | 0.00 | 0.00 | 58 | 1015.8 |
| 20260502070445 | 11 | 313 | 3.2 | 3.2 | 0.00 | 0.00 | 0.00 | 54 | 1015.8 |
| 20260502065425 | 11 | 233 | 1.6 | 3.2 | 0.00 | 0.00 | 0.00 | 53 | 1015.8 |
| 20260502064525 | 12 | 226 | 1.6 | 1.6 | 0.00 | 0.00 | 0.00 | 51 | 1015.8 |
| 20260502063426 | 12 | 343 | 1.6 | 1.6 | 0.00 | 0.00 | 0.00 | 51 | 1015.7 |
| 20260502062426 | 12 | 131 | 1.6 | 1.6 | 0.00 | 0.00 | 0.00 | 54 | 1015.6 |
| 20260502061425 | 13 | 79 | 1.6 | 1.6 | 0.00 | 0.00 | 0.00 | 47 | 1015.6 |
| 20260502060426 | 13 | 118 | 1.6 | 3.2 | 0.00 | 0.00 | 0.00 | 47 | 1015.6 |
| 20260502055426 | 13 | 82 | 1.6 | 3.2 | 0.00 | 0.00 | 0.00 | 49 | 1015.6 |
| 20260502054426 | 13 | 83 | 1.6 | 3.2 | 0.00 | 0.00 | 0.00 | 53 | 1015.7 |
| 20260502053427 | 14 | 116 | 3.2 | 4.8 | 0.00 | 0.00 | 0.00 | 42 | 1015.7 |
| 20260502052447 | 14 | 85 | 1.6 | 3.2 | 0.00 | 0.00 | 0.00 | 42 | 1015.7 |
| 20260502051447 | 15 | 32 | 0.0 | 1.6 | 0.00 | 0.00 | 0.00 | 42 | 1015.7 |
| 20260502050447 | 15 | 78 | 0.0 | 1.6 | 0.00 | 0.00 | 0.00 | 42 | 1015.6 |
| 20260502045447 | 15 | 0 | 0.0 | 0.0 | 0.00 | 0.00 | 0.00 | 41 | 1015.4 |
| 20260502044427 | 15 | 67 | 1.6 | 1.6 | 0.00 | 0.00 | 0.00 | 39 | 1015.6 |
| 20260502043427 | 16 | 0.0 | 0.0 | 0.00 | 0.00 | 0.00 | 39 | 1015.6 | |
| 20260502042416 | 16 | 0 | 0.0 | 0.0 | 0.00 | 0.00 | 0.00 | 37 | 1015.6 |
| 20260502041417 | 17 | 164 | 1.6 | 1.6 | 0.00 | 0.00 | 0.00 | 36 | 1015.4 |
| 20260502040437 | 18 | 107 | 1.6 | 1.6 | 0.00 | 0.00 | 0.00 | 33 | 1015.4 |
| 20260502035417 | 18 | 0 | 0.0 | 0.0 | 0.00 | 0.00 | 0.00 | 31 | 1015.2 |
| 20260502034457 | 18 | 0 | 0.0 | 0.0 | 0.00 | 0.00 | 0.00 | 30 | 1015.1 |
| 20260502033417 | 19 | 53 | 0.0 | 1.6 | 0.00 | 0.00 | 0.00 | 27 | 1015.0 |
| 20260502032416 | 20 | 140 | 1.6 | 1.6 | 0.00 | 0.00 | 0.00 | 25 | 1015.0 |
| 20260502031418 | 21 | 0.0 | 0.0 | 0.00 | 0.00 | 0.00 | 22 | 1014.8 |